Regional Weather Roundup
Issued by NWS Charleston, SC

Current Version | Previous Version | Graphics & Text | Print | Product List | Glossary On
Versions: 1 2 3 4 5 6 7 8 9 10 11 12 13 14 15 16 17 18 19 20 21 22 23 24 25 26 27 28 29 30 31 32 33 34 35 36 37 38 39 40 41 42 43 44 45 46 47 48 49 50
000
ASUS42 KCHS 040526
RWRCHS
REGIONAL WEATHER ROUNDUP
NATIONAL WEATHER SERVICE CHARLESTON SC
1200 AM EST WED MAR 04 2015

NOTE: "FAIR" INDICATES FEW OR NO CLOUDS BELOW 12,000 FEET WITH NO
SIGNIFICANT WEATHER AND/OR OBSTRUCTIONS TO VISIBILITY.

NOT ALL STATIONS ARE QUALITY CONTROLLED BY THE NATIONAL
WEATHER SERVICE. USE DATA WITH CAUTION...ESPECIALLY
DEWPOINT OBSERVATIONS.

SCZ027-030-031-034>040-042>050-040600-
...SOUTHEAST SOUTH CAROLINA...

CITY           SKY/WX    TMP DP  RH WIND       PRES   REMARKS
N CHARLESTON   CLOUDY    54  51  90 CALM      30.14F
WATERFRONT PRK   N/A     52 N/A N/A CALM        N/A
MOUNT PLEASANT CLOUDY    52  52 100 CALM      30.13F FOG
PINOPOLIS      NOT AVBL
MONCKS CORNER  CLOUDY    48  45  87 CALM      30.13F
SUMMERVILLE    NOT AVBL
BEAUFORT MCAS  FOG       55  54  96 CALM      30.13F VSB 1/4
BEAUFORT ARPT  FOG       54  54 100 CALM      30.12F VSB<1/4
HILTON HEAD IS FOG       59  59 100 S3        30.14F VSB 1/4
WALTERBORO     CLOUDY    54  52  94 E3        30.13F
ALLENDALE      CLOUDY    52  52 100 CALM      30.11F FOG

...SOUTHERN MIDLANDS AND PEE DEE...

CITY           SKY/WX    TMP DP  RH WIND       PRES   REMARKS
GEORGETOWN     NOT AVBL
KINGSTREE      NOT AVBL
ORANGEBURG     FOG       46  44  93 CALM      30.12F VSB 3/4
BARNWELL       FOG       50  50 100 CALM      30.12F VSB 1/4
AIKEN          FOG       46  46 100 CALM      30.14F VSB 1/4
MANNING        CLOUDY   N/A N/A N/A CALM      30.13F HAZE
COLUMBIA       FOG       45  44  97 CALM      30.12F VSB 1/4
SUMTER         CLOUDY    43  41  93 S2        30.10F FOG
FLORENCE       CLOUDY    42  40  92 CALM      30.13F FOG
MYRTLE BEACH   CLOUDY    48  45  87 CALM      30.15F VSB 1/4
N MYRTLE BEACH FOG       47  45  93 CALM      30.13F VSB 1/4

$$

GAZ063-065-086>088-099>101-113>116-118-119-134>141-150-040600-
...SOUTHEAST GEORGIA...

CITY           SKY/WX    TMP DP  RH WIND       PRES   REMARKS
SAVANNAH ARPT  CLOUDY    61  61 100 S9        30.12F FOG
HUNTER AAF     CLEAR     61  61 100 S6        30.10F FOG
FORT STEWART   PTCLDY    61  59  94 SE3       30.11F
STATESBORO     CLEAR     63  63 100 S3        30.10F
SYLVANIA       CLOUDY    57  57 100 CALM      30.11F FOG
CLAXTON        FAIR      64  64 100 CALM      30.11F

...CSRA...CENTRAL AND FAR SOUTHEAST GEORGIA...

CITY           SKY/WX    TMP DP  RH WIND       PRES   REMARKS
THOMSON        CLOUDY    52  52 100 CALM      30.15F VSB<1/4
AUGUSTA-BUSH   FOG       50  50 100 E3        30.12F VSB 1/4
AUGUSTA-DANIEL FOG       52  51  97 E3        30.12F VSB 1/4
SWAINSBORO     NOT AVBL
VIDALIA        PTCLDY    66  64  94 S5        30.11F
EASTMAN        FAIR      63  63 100 W3        30.12F
HAZLEHURST     FAIR      68  67  95 S3        30.10F
ALMA           CLEAR     65  64  97 SE3       30.12S
WAYCROSS       CLEAR     66  65  98 CALM      30.12F FOG
JESUP          FAIR      66  64  94 CALM      30.13F FOG
BAXLEY         FAIR      68  64  88 CALM      30.11F
BRUNSWICK      CLEAR     68  63  83 S9        30.14F
SAINT SIMONS   PTCLDY    62  60  93 S13G22    30.13F

$$

SCZ027-028-034-036>038-045-046-048>050-GAZ119-141-040600-
...LAKE AND SUPPLEMENTAL COASTAL OBSERVATIONS...

STATION/POSITION TIME  TEMP    WIND        PRES    WAVE   SWELL
                       AIR SEA DIR/SP/G            HT/PER HT/PER/DIR
                 (UTC) (F)     (DEG/KT/KT) (MB)    (FT/S) (FT/S/D)
UPR LAKE MARION  NOT AVBL
WINYAH BAY       0400   48     310/  1     1020.0
LAKE MURRAY      0500   43     140/  3/  3 1019.3F
ACE BASIN NERRS  NOT AVBL
FORT PULASKI     0500   60 50  190/  5/  8 1020.6F
SAPELO ISLAND    0500   62     170/  6     1020.0F

$$

ANZ835-935-AMZ111-154-330-350-352-354-370-450-454-472-040600-
...C-MAN AND BUOY OBSERVATIONS...

STATION/POSITION TIME  TEMP    WIND        PRES    WAVE   SWELL
                       AIR SEA DIR/SP/G            HT/PER HT/PER/DIR
                 (UTC) (F)     (DEG/KT/KT) (MB)    (FT/S) (FT/S/D)
BUOY 41004       0450   69 68  170/  6/  8 1020.4F   5/ 9   5/ 9
BUOY 41008       0450   60 54  170/ 12/ 14 1020.5F   3/ 8   2/ 80/ 8
FOLLY BEACH CMAN 0500   50      10/  4/  4 1021.2F
CAPERS NEARSHORE NOT AVBL
FRIPP NEARSHORE  0400   52     130/  4/  4 1020.3S


STATION/POSITION TIME  TEMP    WIND        PRES    WAVE   SWELL
                       AIR SEA DIR/SP/G            HT/PER HT/PER/DIR
                 (UTC) (F)     (DEG/KT/KT) (MB)    (FT/S) (FT/S/D)
5E ST. MARYS GA  0421      55                N/A     2/ 9
FRYING PAN BUOY  0450   65 61  190/  8/ 10 1020.8F   5/ 6   5/120/ 6
BUOY 41025       NOT AVBL
CAPE LOOKOUT NC  0500   60     200/ 11/ 14 1019.5F
BUOY 41002       0450   69 72  190/ 16/ 21 1024.2F   6/10   3/100/10
BUOY 41010       0420   74 75  140/ 14/ 16 1022.9F
ST AUGUSTINE FL  0500   60     170/  4/  4 1021.9F


$$



USA.gov is the U.S. government's official web portal to all federal, state and local government web resources and services.